Location: Liscomb Game Sanctuary
(45.1633°N, 62.5575°W)
Time: 08:32:45
(UTC-03:00)

Amateur Radio Satellites - All Passes

Search period start: 26 April 2015 08:02
Search period end: 27 April 2015 08:02
Location: Liscomb Game Sanctuary, 45.1633°N, 62.5575°W

Satellite Date Start Highest point End Downlink Frequencies (MHz)
Time Altitude Azimuth
O/OREOS (USA 219) 26 Apr 08:07:30 08:11:55 53° 62° (ENE) 08:16:19 437.305
Cosmos 2499 26 Apr 08:16:59 08:21:45 17° 283° (WNW) 08:25:58 435.465 / 435.565
BRITE-PL 26 Apr 08:24:15 08:28:00 21° 91° (E) 08:32:05 437.365/2234.400
CUTE-I 26 Apr 08:32:24 08:37:19 38° 293° (WNW) 08:42:10 437.470
PCSat 26 Apr 08:33:57 08:39:06 48° 115° (ESE) 08:44:20 145.827
Cubesat XI-IV 26 Apr 08:42:21 08:47:02 32° 294° (WNW) 08:51:40 437.490
DOVE 4 26 Apr 08:44:32 08:47:15 15° 87° (E) 08:50:15 437.250
SEEDS 26 Apr 08:51:30 08:52:42 11° 86° (E) 08:54:09 437.485
STRAND 1 26 Apr 08:56:27 08:58:40 12° 274° (W) 09:00:36 437.568
CANX-2 26 Apr 08:59:19 09:02:18 19° 90° (E) 09:05:24 2200.000
AAUSAT CUBESAT 2 26 Apr 09:07:17 09:08:39 12° 87° (E) 09:10:14 437.432
CUTE 1.7 + AOD 2 26 Apr 09:08:13 09:11:26 21° 92° (E) 09:14:44 437.475
HO-68 26 Apr 09:11:12 09:17:31 33° 94° (E) 09:23:54 435.675
TIGRISAT 26 Apr 09:21:50 09:23:16 12° 59° (ENE) 09:24:56 435.000
CINEMA 3 26 Apr 09:24:46 09:28:06 18° 89° (E) 09:31:37 145.822/145.860
UNISAT 6 26 Apr 09:25:44 09:27:45 13° 60° (ENE) 09:30:00 437.425
Cosmos 2491 26 Apr 09:30:21 09:38:37 42° 70° (ENE) 09:46:55 435.465 / 435.565
GOMX 1 26 Apr 09:46:29 09:51:37 76° 102° (ESE) 09:57:02 467.674
UWE-3 26 Apr 09:46:50 09:48:36 12° 86° (E) 09:50:37 435.000/436.395/437.385
O/OREOS (USA 219) 26 Apr 09:48:00 09:50:58 17° 259° (W) 09:53:45 437.305
POLYITAN 1 26 Apr 09:51:17 09:51:57 10° 60° (ENE) 09:52:51 437.675
FUNcube-1 26 Apr 09:55:22 09:56:40 11° 85° (E) 09:58:14 145.935
COMPASS 1 26 Apr 09:58:32 10:02:37 48° 99° (E) 10:06:41 437.405
BRITE-PL 26 Apr 10:01:52 10:06:50 56° 287° (WNW) 10:12:07 437.365/2234.400
ANTELSAT 26 Apr 10:05:33 10:09:29 30° 67° (ENE) 10:13:34 437.575/2403.000
QB50P1 26 Apr 10:07:37 10:09:59 15° 63° (ENE) 10:12:31 145.935-145.965
DELFI C3 26 Apr 10:13:06 10:16:09 21° 92° (E) 10:19:16 145.870
Oscar 11 26 Apr 10:17:03 10:20:55 31° 95° (E) 10:24:50 145.826/435.025
PCSat 26 Apr 10:17:54 10:22:44 32° 315° (NW) 10:27:34 145.827
ZACube-1 26 Apr 10:19:17 10:22:42 21° 91° (E) 10:26:13 437.345
DOVE 4 26 Apr 10:20:29 10:25:36 78° 285° (WNW) 10:30:53 437.250
SEEDS 26 Apr 10:24:51 10:29:07 71° 285° (WNW) 10:33:18 437.485
QB50P2 26 Apr 10:32:35 10:36:07 27° 67° (ENE) 10:39:43 145.880/145.840
CANX-2 26 Apr 10:34:25 10:38:30 43° 289° (WNW) 10:42:32 2200.000
YUBILEINY 26 Apr 10:38:25 10:46:26 42° 87° (E) 10:54:35 435.215
AAUSAT CUBESAT 2 26 Apr 10:40:38 10:44:50 68° 286° (WNW) 10:48:57 437.432
CUTE 1.7 + AOD 2 26 Apr 10:43:32 10:47:32 38° 289° (WNW) 10:51:28 437.475
AISAT 26 Apr 10:45:43 10:46:16 10° 86° (E) 10:47:05 437.250
SO-50 26 Apr 10:46:15 10:47:25 11° 108° (ESE) 10:48:52 436.795
BEESAT 3 26 Apr 10:46:27 10:49:59 27° 43° (NE) 10:53:30 437.485
BEESAT 2 26 Apr 10:48:38 10:52:04 25° 41° (NE) 10:55:31 435.950
NANOSAT C BR1 26 Apr 10:49:53 10:53:46 38° 70° (ENE) 10:57:44 145.865
DX 1 26 Apr 10:51:49 10:55:23 24° 94° (E) 10:59:01 434.975-435.025
POPSAT HIP 1 26 Apr 10:53:16 10:57:14 42° 71° (ENE) 11:01:15 437.405
TIGRISAT 26 Apr 10:54:47 10:59:19 86° 76° (ENE) 11:04:00 435.000
CUBEBUG 2 26 Apr 10:56:06 11:00:54 72° 101° (E) 11:05:40 437.445
50 SAT 26 Apr 10:57:46 10:59:51 14° 89° (E) 11:02:04 437.505
HO-68 26 Apr 10:58:37 11:05:35 54° 294° (WNW) 11:12:29 435.675
UNISAT 6 26 Apr 10:59:22 11:03:55 83° 257° (WSW) 11:08:36 437.425
CINEMA 3 26 Apr 11:00:47 11:05:43 60° 287° (WNW) 11:10:40 145.822/145.860
AIST 1 26 Apr 11:01:40 11:04:03 15° 66° (ENE) 11:06:37
BUGSAT 1 26 Apr 11:14:49 11:18:42 49° 72° (ENE) 11:22:37 437.445
UWE-3 26 Apr 11:21:04 11:25:48 79° 286° (WNW) 11:30:28 435.000/436.395/437.385
POLYITAN 1 26 Apr 11:23:00 11:27:14 89° 80° (E) 11:31:32 437.675
DUCHIFAT 1 26 Apr 11:23:17 11:27:29 87° 77° (ENE) 11:31:45 145.980
ESTCUBE 1 26 Apr 11:24:58 11:27:31 15° 89° (E) 11:30:16 437.505/2401.250
GOMX 1 26 Apr 11:25:58 11:29:17 17° 297° (WNW) 11:32:32 467.674
Cosmos 2491 26 Apr 11:27:18 11:35:40 48° 271° (W) 11:43:56 435.465 / 435.565
FUNcube-1 26 Apr 11:29:03 11:33:41 82° 284° (WNW) 11:38:16 145.935
UKube-1 26 Apr 11:33:35 11:37:54 63° 102° (ESE) 11:42:12 .
COMPASS 1 26 Apr 11:35:07 11:37:59 18° 295° (WNW) 11:40:43 437.405
QB50P1 26 Apr 11:41:17 11:45:26 58° 259° (W) 11:49:38 145.935-145.965
ANTELSAT 26 Apr 11:42:08 11:46:13 32° 265° (W) 11:50:22 437.575/2403.000
HUMSAT D 26 Apr 11:44:52 11:49:15 75° 102° (ESE) 11:53:34 437.325/437.525
DELFI C3 26 Apr 11:47:43 11:51:25 34° 290° (WNW) 11:55:03 145.870
AIST 2 26 Apr 11:52:43 11:56:36 33° 45° (NE) 12:00:27 435.215
Oscar 11 26 Apr 11:53:21 11:57:02 27° 293° (WNW) 12:00:39 145.826/435.025
ZACube-1 26 Apr 11:54:53 11:59:19 45° 289° (WNW) 12:03:41 437.345
ISS 26 Apr 11:57:50 12:00:30 24° 138° (SE) 12:03:13 145.825
DOVE 4 26 Apr 12:00:31 12:02:40 12° 301° (WNW) 12:04:36 437.250
VELOX 1 26 Apr 12:00:57 12:05:21 61° 101° (E) 12:09:45 145.980
CUBEBUG 1 26 Apr 12:04:41 12:08:38 33° 96° (E) 12:12:38 437.445
QB50P2 26 Apr 12:08:12 12:11:57 30° 265° (W) 12:15:42 145.880/145.840
AISAT 26 Apr 12:19:05 12:23:34 84° 285° (WNW) 12:28:02 437.250
SO-50 26 Apr 12:22:33 12:27:14 84° 125° (SE) 12:32:06 436.795
BEESAT 3 26 Apr 12:24:17 12:28:06 38° 242° (WSW) 12:31:51 437.485
BEESAT 2 26 Apr 12:26:26 12:30:22 43° 241° (WSW) 12:34:14 435.950
NANOSAT C BR1 26 Apr 12:26:36 12:29:48 20° 268° (W) 12:32:56 145.865
DX 1 26 Apr 12:27:45 12:31:43 34° 291° (WNW) 12:35:39 434.975-435.025
POPSAT HIP 1 26 Apr 12:30:17 12:33:21 19° 269° (W) 12:36:19 437.405
50 SAT 26 Apr 12:31:04 12:35:02 53° 287° (WNW) 12:38:57 437.505
CUBEBUG 2 26 Apr 12:34:10 12:37:05 16° 298° (WNW) 12:39:50 437.445
YUBILEINY 26 Apr 12:34:45 12:43:14 48° 288° (WNW) 12:51:40 435.215
TIGRISAT 26 Apr 12:35:49 12:36:52 10° 275° (W) 12:37:37 435.000
AIST 1 26 Apr 12:37:58 12:42:09 53° 265° (W) 12:46:17
HO-68 26 Apr 12:48:54 12:51:54 13° 314° (NW) 12:54:33 435.675
Cosmos 2504 26 Apr 12:49:04 12:56:12 30° 83° (E) 13:03:30 435.465 / 435.565
TISAT 1 26 Apr 12:49:52 12:53:11 22° 93° (E) 12:56:35 437.305
BUGSAT 1 26 Apr 12:52:09 12:54:31 15° 270° (W) 12:56:46 437.445
RS-15 26 Apr 12:53:41 12:58:48 15° 98° (E) 13:04:49 29.354- 29.394
UWE-3 26 Apr 13:00:15 13:01:36 11° 301° (WNW) 13:02:44 435.000/436.395/437.385
ESTCUBE 1 26 Apr 13:00:25 13:04:51 58° 287° (WNW) 13:09:15 437.505/2401.250
Oscar 19 26 Apr 13:04:52 13:09:37 39° 68° (ENE) 13:14:27 437.125/150
FUNcube-1 26 Apr 13:07:58 13:09:19 11° 301° (WNW) 13:10:26 145.935
UKube-1 26 Apr 13:11:03 13:13:36 15° 298° (WNW) 13:16:01 .
SPROUT 26 Apr 13:22:24 13:26:43 63° 101° (E) 13:31:00 437.525
HUMSAT D 26 Apr 13:22:24 13:24:28 13° 299° (WNW) 13:26:20 437.325/437.525
AO-7 26 Apr 13:25:52 13:28:30 12° 38° (NE) 13:31:31 29.400- 29.500
AIST 2 26 Apr 13:31:23 13:35:08 30° 244° (WSW) 13:38:48 435.215
ISS 26 Apr 13:33:28 13:36:41 56° 335° (NNW) 13:39:55 145.825
VELOX 1 26 Apr 13:38:44 13:41:30 16° 298° (WNW) 13:44:07 145.980
CUBEBUG 1 26 Apr 13:41:16 13:44:54 26° 293° (WNW) 13:48:28 437.445
ITAMSAT 1 26 Apr 13:41:38 13:45:59 29° 65° (ENE) 13:50:25 435.822/435.867
BEESAT 26 Apr 13:45:27 13:48:08 15° 88° (E) 13:51:00 436.000
SWISSCUBE 26 Apr 13:47:47 13:50:52 17° 90° (E) 13:54:06 437.505
AISAT 26 Apr 13:58:22 13:59:30 11° 301° (WNW) 14:00:24 437.250
SO-50 26 Apr 14:04:51 14:08:26 20° 326° (NW) 14:12:02 436.795
Gurwin Techsat 1B 26 Apr 14:14:55 14:19:59 48° 70° (ENE) 14:25:06 435.225
TISAT 1 26 Apr 14:25:10 14:29:05 36° 290° (WNW) 14:32:58 437.305
Cosmos 2504 26 Apr 14:40:12 14:49:05 69° 283° (WNW) 14:57:47 435.465 / 435.565
YUBILEINY 26 Apr 14:41:32 14:43:05 10° 315° (NW) 14:44:00 435.215
Oscar 19 26 Apr 14:44:38 14:49:06 29° 266° (W) 14:53:32 437.125/150
HORYU 2 26 Apr 14:50:13 14:53:33 21° 64° (ENE) 14:56:58 437.375
ITUPSAT 1 26 Apr 14:51:23 14:56:08 64° 101° (E) 15:00:51 437.325
RS-15 26 Apr 14:58:31 15:09:13 69° 119° (ESE) 15:20:14 29.354- 29.394
SPROUT 26 Apr 14:59:51 15:02:21 15° 297° (WNW) 15:04:43 437.525
JAS-2 26 Apr 15:03:23 15:10:01 33° 62° (ENE) 15:16:32 435.910
KKS-1 26 Apr 15:04:49 15:07:50 18° 91° (E) 15:11:00 437.445
GONETS M04 26 Apr 15:06:36 15:10:04 13° 74° (ENE) 15:14:09
ISS 26 Apr 15:10:41 15:13:30 25° 355° (N) 15:16:18 145.825
AO-7 26 Apr 15:11:40 15:19:18 44° 60° (ENE) 15:27:03 29.400- 29.500
ITAMSAT 1 26 Apr 15:20:28 15:25:21 40° 263° (W) 15:30:14 435.822/435.867
BEESAT 26 Apr 15:21:46 15:26:31 64° 287° (WNW) 15:31:12 436.000
SWISSCUBE 26 Apr 15:24:28 15:29:09 56° 288° (WNW) 15:33:48 437.505
PCSat 26 Apr 15:37:22 15:40:23 15° 31° (NNE) 15:43:31 145.827
Gurwin Techsat 1B 26 Apr 15:55:53 16:00:15 25° 268° (W) 16:04:30 435.225
STARS 26 Apr 15:56:40 16:00:49 38° 97° (E) 16:05:00 437.465
HORYU 2 26 Apr 16:25:36 16:29:55 45° 261° (W) 16:34:16 437.375
VERMONT LUNAR 26 Apr 16:26:18 16:27:48 13° 153° (SSE) 16:29:23 437.305
ITUPSAT 1 26 Apr 16:30:28 16:33:35 17° 299° (WNW) 16:36:33 437.325
Cosmos 2504 26 Apr 16:38:57 16:44:27 17° 306° (NW) 16:49:25 435.465 / 435.565
KKS-1 26 Apr 16:40:27 16:44:49 49° 288° (WNW) 16:49:09 437.445
CUSAT 1 26 Apr 16:40:47 16:43:03 15° 81° (E) 16:45:50 437.405
CUTE-I 26 Apr 16:41:54 16:42:19 10° 54° (NE) 16:43:01 437.470
JAS-2 26 Apr 16:46:51 16:54:41 64° 260° (W) 17:02:12 435.910
ISS 26 Apr 16:47:25 16:50:27 33° 15° (NNE) 16:53:28 145.825
Cubesat XI-IV 26 Apr 16:50:03 16:52:05 12° 56° (NE) 16:54:21 437.490
GONETS M04 26 Apr 16:56:43 17:05:22 68° 94° (E) 17:14:08
AO-7 26 Apr 17:04:09 17:12:06 48° 260° (W) 17:20:03 29.400- 29.500
Cosmos 2499 26 Apr 17:11:05 17:15:27 16° 77° (ENE) 17:20:17 435.465 / 435.565
RS-15 26 Apr 17:12:00 17:22:23 45° 325° (NW) 17:33:03 29.354- 29.394
MOZHAYETS 4 26 Apr 17:13:41 17:17:39 29° 94° (E) 17:21:39
PCSat 26 Apr 17:19:37 17:25:00 60° 54° (NE) 17:30:22 145.827
DANDE 26 Apr 17:24:49 17:27:53 28° 88° (E) 17:31:51 436.750
STARS 26 Apr 17:33:31 17:37:07 24° 294° (WNW) 17:40:37 437.465
VERMONT LUNAR 26 Apr 18:01:40 18:04:42 30° 169° (S) 18:07:44 437.305
CUTE-I 26 Apr 18:16:15 18:21:29 62° 72° (ENE) 18:26:45 437.470
CUSAT 1 26 Apr 18:21:15 18:24:59 47° 288° (WNW) 18:29:58 437.405
ISS 26 Apr 18:23:44 18:26:57 58° 215° (SW) 18:30:09 145.825
Cubesat XI-IV 26 Apr 18:26:05 18:31:24 76° 74° (ENE) 18:36:45 437.490
AUBIESAT-1 26 Apr 18:37:29 18:38:19 11° 90° (E) 18:39:22 437.475
JAS-2 26 Apr 18:37:49 18:41:13 13° 280° (W) 18:44:00 435.910
PHONESAT 2.4 26 Apr 18:39:21 18:42:27 28° 165° (SSE) 18:45:35 2401.200-2431.200
MOZHAYETS 4 26 Apr 18:50:48 18:54:55 32° 292° (WNW) 18:58:56
CUBESAT XI-V 26 Apr 18:52:52 18:56:40 25° 93° (E) 19:00:33 437.345
GONETS M04 26 Apr 18:55:28 19:03:03 30° 296° (WNW) 19:10:29
Cosmos 2499 26 Apr 18:58:34 19:07:22 73° 95° (E) 19:15:56 435.465 / 435.565
PRISM 26 Apr 19:01:31 19:04:07 17° 91° (E) 19:06:50 437.425
PCSat 26 Apr 19:03:53 19:08:03 22° 252° (WSW) 19:12:03 145.827
DANDE 26 Apr 19:08:18 19:11:18 22° 298° (WNW) 19:14:57 436.750
SO-50 26 Apr 19:12:10 19:16:14 25° 38° (NE) 19:20:21 436.795
STRAND 1 26 Apr 19:22:35 19:26:42 25° 93° (E) 19:30:54 437.568
GOMX 1 26 Apr 19:22:50 19:24:05 11° 59° (ENE) 19:25:33 467.674
M-CUBED/EXP-1 PRIME 26 Apr 19:28:14 19:32:19 45° 103° (ESE) 19:36:04 437.505
RS-15 26 Apr 19:29:21 19:38:31 28° 358° (N) 19:47:59 29.354- 29.394
BRITE-PL 26 Apr 19:38:11 19:41:27 23° 66° (ENE) 19:44:54 437.365/2234.400
VERMONT LUNAR 26 Apr 19:38:40 19:41:48 35° 186° (S) 19:44:57 437.305
HO-68 26 Apr 19:42:16 19:48:23 32° 60° (ENE) 19:54:37 435.675
SEEDS 26 Apr 19:46:04 19:47:35 12° 61° (ENE) 19:49:19 437.485
DOVE 4 26 Apr 19:53:01 19:55:34 16° 61° (ENE) 19:58:20 437.250
CANX-2 26 Apr 19:54:36 19:57:34 19° 65° (ENE) 20:00:40 2200.000
CUTE-I 26 Apr 19:58:17 20:02:04 19° 270° (W) 20:05:41 437.470
AAUSAT CUBESAT 2 26 Apr 20:00:44 20:02:14 12° 61° (ENE) 20:03:56 437.432
CUTE 1.7 + AOD 2 26 Apr 20:03:21 20:06:31 21° 66° (ENE) 20:09:48 437.475
Cubesat XI-IV 26 Apr 20:09:01 20:12:12 15° 273° (W) 20:15:08 437.490
AUBIESAT-1 26 Apr 20:09:38 20:13:50 70° 291° (WNW) 20:17:39 437.475
PHONESAT 2.4 26 Apr 20:16:56 20:20:19 39° 181° (S) 20:23:41 2401.200-2431.200
CINEMA 3 26 Apr 20:29:06 20:32:10 19° 63° (ENE) 20:35:28 145.822/145.860
CUBESAT XI-V 26 Apr 20:29:59 20:34:14 36° 291° (WNW) 20:38:25 437.345
PRISM 26 Apr 20:35:56 20:39:52 45° 289° (WNW) 20:43:46 437.425
YUBILEINY 26 Apr 20:45:58 20:52:31 23° 59° (ENE) 20:59:19 435.215
UWE-3 26 Apr 20:46:27 20:48:30 13° 60° (ENE) 20:50:44 435.000/436.395/437.385
COMPASS 1 26 Apr 20:51:38 20:55:38 43° 72° (ENE) 20:59:42 437.405
SO-50 26 Apr 20:52:17 20:57:13 64° 239° (WSW) 21:02:05 436.795
FUNcube-1 26 Apr 20:53:31 20:55:15 12° 60° (ENE) 20:57:10 145.935
Cosmos 2499 26 Apr 20:53:52 21:01:23 29° 296° (WNW) 21:08:28 435.465 / 435.565
GOMX 1 26 Apr 20:57:18 21:01:32 85° 257° (WSW) 21:06:02 467.674
STRAND 1 26 Apr 21:01:17 21:06:08 44° 291° (WNW) 21:10:57 437.568
DELFI C3 26 Apr 21:03:04 21:05:52 19° 66° (ENE) 21:08:47 145.870
M-CUBED/EXP-1 PRIME 26 Apr 21:03:46 21:06:51 19° 303° (WNW) 21:09:40 437.505
Oscar 11 26 Apr 21:13:47 21:17:39 32° 69° (ENE) 21:21:34 145.826/435.025
BRITE-PL 26 Apr 21:16:03 21:19:52 34° 265° (W) 21:23:48 437.365/2234.400
VERMONT LUNAR 26 Apr 21:16:22 21:18:48 18° 202° (SSW) 21:21:12 437.305
ZACube-1 26 Apr 21:17:35 21:20:50 21° 65° (ENE) 21:24:16 437.345
SEEDS 26 Apr 21:18:33 21:22:50 80° 257° (WSW) 21:27:09 437.485
DOVE 4 26 Apr 21:28:38 21:32:51 60° 260° (W) 21:37:21 437.250
HO-68 26 Apr 21:28:43 21:35:48 59° 259° (WSW) 21:42:54 435.675
CANX-2 26 Apr 21:29:03 21:33:12 47° 262° (W) 21:37:24 2200.000
AAUSAT CUBESAT 2 26 Apr 21:33:05 21:37:19 78° 258° (WSW) 21:41:34 437.432
CUTE 1.7 + AOD 2 26 Apr 21:38:07 21:42:12 41° 263° (W) 21:46:18 437.475
RS-15 26 Apr 21:44:25 21:54:55 41° 31° (NNE) 22:05:58 29.354- 29.394
AISAT 26 Apr 21:45:02 21:47:07 14° 61° (ENE) 21:49:23 437.250
50 SAT 26 Apr 21:46:06 21:47:38 12° 62° (ENE) 21:49:21 437.505
DX 1 26 Apr 21:49:28 21:53:09 28° 67° (ENE) 21:56:54 434.975-435.025
PHONESAT 2.4 26 Apr 21:55:09 21:58:08 24° 198° (SSW) 22:01:05 2401.200-2431.200
CUBEBUG 2 26 Apr 21:56:14 22:00:37 75° 76° (ENE) 22:05:12 437.445
CINEMA 3 26 Apr 22:04:47 22:09:01 49° 262° (W) 22:13:30 145.822/145.860
UWE-3 26 Apr 22:20:02 22:24:25 77° 257° (WSW) 22:29:00 435.000/436.395/437.385
O/OREOS (USA 219) 26 Apr 22:21:43 22:26:00 41° 108° (ESE) 22:30:20 437.305
FUNcube-1 26 Apr 22:26:35 22:30:57 82° 260° (W) 22:35:28 145.935
ESTCUBE 1 26 Apr 22:26:40 22:29:50 20° 64° (ENE) 22:33:06 437.505/2401.250
COMPASS 1 26 Apr 22:28:31 22:31:34 18° 269° (W) 22:34:31 437.405
UKube-1 26 Apr 22:30:14 22:34:32 70° 73° (ENE) 22:38:52 .
Cosmos 2491 26 Apr 22:34:15 22:42:16 44° 88° (E) 22:50:28 435.465 / 435.565
DELFI C3 26 Apr 22:36:51 22:40:46 42° 262° (W) 22:44:40 145.870
HUMSAT D 26 Apr 22:38:26 22:42:38 68° 75° (ENE) 22:46:56 437.325/437.525
Cosmos 2504 26 Apr 22:41:37 22:43:06 11° 47° (NE) 22:45:04 435.465 / 435.565
YUBILEINY 26 Apr 22:41:51 22:50:41 85° 262° (W) 22:59:23 435.215
TIGRISAT 26 Apr 22:45:43 22:48:40 17° 89° (E) 22:51:46 435.000
Oscar 11 26 Apr 22:50:11 22:53:53 26° 266° (W) 22:57:31 145.826/435.025
UNISAT 6 26 Apr 22:50:17 22:53:35 19° 90° (E) 22:57:00 437.425
ZACube-1 26 Apr 22:52:46 22:56:56 43° 263° (W) 23:01:14 437.345
VELOX 1 26 Apr 23:00:26 23:04:49 71° 74° (ENE) 23:09:14 145.980
CUBEBUG 1 26 Apr 23:02:52 23:06:48 36° 70° (ENE) 23:10:48 437.445
DUCHIFAT 1 26 Apr 23:07:56 23:09:38 12° 87° (E) 23:11:33 145.980
POLYITAN 1 26 Apr 23:08:09 23:10:08 13° 88° (E) 23:12:19 437.675
50 SAT 26 Apr 23:17:57 23:21:56 70° 258° (WSW) 23:26:00 437.505
AISAT 26 Apr 23:18:49 23:23:12 73° 258° (WSW) 23:27:37 437.250
QB50P1 26 Apr 23:25:07 23:28:12 20° 92° (E) 23:31:23 145.935-145.965
DX 1 26 Apr 23:25:33 23:29:22 29° 264° (W) 23:33:10 434.975-435.025
ANTELSAT 26 Apr 23:31:33 23:36:07 48° 98° (E) 23:40:38 437.575/2403.000
CUBEBUG 2 26 Apr 23:36:15 23:38:01 12° 275° (W) 23:39:34 437.445
TISAT 1 26 Apr 23:44:21 23:47:35 22° 66° (ENE) 23:50:54 437.305
QB50P2 26 Apr 23:51:00 23:55:00 37° 97° (E) 23:59:01 145.880/145.840
RS-15 26 Apr 23:57:08 00:08:41 82° 238° (WSW) 00:20:43 29.354- 29.394
O/OREOS (USA 219) 27 Apr 00:01:49 00:05:38 24° 307° (NW) 00:09:21 437.305
ESTCUBE 1 27 Apr 00:02:00 00:06:24 49° 261° (W) 00:10:47 437.505/2401.250
NANOSAT C BR1 27 Apr 00:08:09 00:12:22 54° 100° (E) 00:16:35 145.865
UKube-1 27 Apr 00:09:27 00:11:15 12° 272° (W) 00:12:49 .
POPSAT HIP 1 27 Apr 00:11:53 00:16:09 60° 101° (E) 00:20:24 437.405
HUMSAT D 27 Apr 00:17:11 00:18:58 12° 273° (W) 00:20:34 437.325/437.525
SPROUT 27 Apr 00:18:24 00:22:37 62° 74° (ENE) 00:26:52 437.525
TIGRISAT 27 Apr 00:21:11 00:25:51 58° 288° (WNW) 00:30:25 435.000
ITUPSAT 1 27 Apr 00:25:34 00:27:38 13° 59° (ENE) 00:29:55 437.325
UNISAT 6 27 Apr 00:26:07 00:30:43 50° 288° (WNW) 00:35:13 437.425
BUGSAT 1 27 Apr 00:30:02 00:34:11 66° 101° (E) 00:38:22 437.445
Cosmos 2491 27 Apr 00:30:53 00:39:11 45° 289° (WNW) 00:47:31 435.465 / 435.565
Cosmos 2504 27 Apr 00:31:17 00:39:09 52° 73° (ENE) 00:46:28 435.465 / 435.565
CUBEBUG 1 27 Apr 00:39:50 00:43:19 23° 267° (W) 00:46:42 437.445
VELOX 1 27 Apr 00:40:04 00:41:58 12° 273° (W) 00:43:38 145.980
YUBILEINY 27 Apr 00:40:40 00:46:18 18° 283° (WNW) 00:51:29 435.215
DUCHIFAT 1 27 Apr 00:41:43 00:46:00 67° 285° (WNW) 00:50:14 145.980
POLYITAN 1 27 Apr 00:42:15 00:46:33 64° 286° (WNW) 00:50:48 437.675
BEESAT 27 Apr 00:53:41 00:57:23 23° 64° (ENE) 01:01:12 436.000
SWISSCUBE 27 Apr 00:56:10 01:00:05 26° 65° (ENE) 01:04:05 437.505
QB50P1 27 Apr 01:00:13 01:04:17 42° 289° (WNW) 01:08:19 145.935-145.965
ANTELSAT 27 Apr 01:09:00 01:12:36 22° 296° (WNW) 01:16:05 437.575/2403.000
AIST 1 27 Apr 01:09:08 01:13:26 80° 97° (E) 01:17:44
Oscar 19 27 Apr 01:16:34 01:18:03 11° 85° (E) 01:19:52 437.125/150
TISAT 1 27 Apr 01:19:20 01:23:12 36° 263° (W) 01:27:05 437.305
QB50P2 27 Apr 01:27:18 01:30:44 23° 294° (WNW) 01:34:05 145.880/145.840
NANOSAT C BR1 27 Apr 01:45:05 01:47:50 17° 297° (WNW) 01:50:29 145.865
POPSAT HIP 1 27 Apr 01:49:02 01:51:37 15° 297° (WNW) 01:54:04 437.405
SPROUT 27 Apr 01:57:04 01:59:12 13° 272° (W) 02:01:09 437.525
ITUPSAT 1 27 Apr 02:00:06 02:04:55 88° 259° (WSW) 02:09:45 437.325
KKS-1 27 Apr 02:05:06 02:08:27 22° 65° (ENE) 02:11:55 437.445
BUGSAT 1 27 Apr 02:07:06 02:09:13 13° 298° (WNW) 02:11:11 437.445
RS-15 27 Apr 02:11:14 02:19:43 23° 258° (WSW) 02:27:47 29.354- 29.394
BEESAT 3 27 Apr 02:19:31 02:22:42 23° 114° (ESE) 02:25:59 437.485
DANDE 27 Apr 02:20:05 02:21:39 11° 52° (NE) 02:23:48 436.750
BEESAT 2 27 Apr 02:22:48 02:25:50 21° 114° (ESE) 02:28:59 435.950
Cosmos 2504 27 Apr 02:25:13 02:32:15 34° 275° (W) 02:38:44 435.465 / 435.565
Gurwin Techsat 1B 27 Apr 02:30:13 02:33:18 16° 88° (E) 02:36:36 435.225
BEESAT 27 Apr 02:30:25 02:35:00 44° 262° (W) 02:39:36 436.000
SWISSCUBE 27 Apr 02:33:19 02:37:48 39° 262° (W) 02:42:16 437.505
AIST 1 27 Apr 02:50:41 02:51:47 11° 297° (WNW) 02:52:39
Oscar 19 27 Apr 02:53:03 02:58:18 86° 100° (E) 03:03:31 437.125/150
STARS 27 Apr 02:55:30 02:59:39 43° 70° (ENE) 03:03:52 437.465
GONETS M04 27 Apr 03:04:35 03:12:38 38° 68° (ENE) 03:20:45
CUSAT 1 27 Apr 03:11:40 03:18:04 30° 65° (ENE) 03:25:14 437.405
ITAMSAT 1 27 Apr 03:30:44 03:35:53 61° 101° (E) 03:41:01 435.822/435.867
AIST 2 27 Apr 03:30:48 03:34:38 33° 117° (ESE) 03:38:32 435.215
KKS-1 27 Apr 03:40:39 03:44:52 42° 262° (W) 03:49:06 437.445
ITUPSAT 1 27 Apr 03:42:45 03:43:38 10° 275° (W) 03:44:11 437.325
BEESAT 3 27 Apr 03:56:36 04:00:30 41° 312° (NW) 04:04:27 437.485
JAS-2 27 Apr 03:57:09 04:00:54 17° 83° (E) 04:04:41 435.910
DANDE 27 Apr 03:59:34 04:06:40 48° 72° (ENE) 04:14:52 436.750
BEESAT 2 27 Apr 03:59:42 04:03:41 46° 311° (NW) 04:07:43 435.950
Gurwin Techsat 1B 27 Apr 04:08:37 04:13:56 73° 287° (WNW) 04:19:14 435.225
HORYU 2 27 Apr 04:14:58 04:18:53 29° 95° (E) 04:22:49 437.375
MOZHAYETS 4 27 Apr 04:17:29 04:21:41 35° 69° (ENE) 04:25:55
STARS 27 Apr 04:33:05 04:36:21 20° 268° (W) 04:39:32 437.465
Oscar 19 27 Apr 04:34:03 04:37:02 15° 301° (WNW) 04:39:48 437.125/150
M-CUBED/EXP-1 PRIME 27 Apr 04:45:30 04:47:55 14° 54° (NE) 04:50:31 437.505
Cosmos 2499 27 Apr 04:48:49 04:55:16 28° 63° (ENE) 05:01:30 435.465 / 435.565
CUSAT 1 27 Apr 04:53:47 05:01:21 70° 263° (W) 05:09:39 437.405
GONETS M04 27 Apr 05:01:20 05:09:53 54° 269° (W) 05:18:19
AO-7 27 Apr 05:02:44 05:10:50 53° 101° (E) 05:18:58 29.400- 29.500
AIST 2 27 Apr 05:09:22 05:13:14 32° 316° (NW) 05:17:06 435.215
ITAMSAT 1 27 Apr 05:11:12 05:15:00 20° 298° (WNW) 05:18:39 435.822/435.867
AUBIESAT-1 27 Apr 05:24:41 05:28:39 27° 61° (ENE) 05:32:39 437.475
JAS-2 27 Apr 05:40:38 05:47:04 77° 287° (WNW) 05:52:43 435.910
BEESAT 2 27 Apr 05:42:06 05:42:52 10° 333° (NNW) 05:43:31 435.950
DANDE 27 Apr 05:42:56 05:49:57 43° 268° (W) 05:57:46 436.750
Gurwin Techsat 1B 27 Apr 05:51:05 05:53:06 12° 304° (NW) 05:54:51 435.225
HORYU 2 27 Apr 05:51:33 05:55:32 31° 293° (WNW) 05:59:26 437.375
PRISM 27 Apr 05:53:57 05:56:42 18° 64° (ENE) 05:59:34 437.425
MOZHAYETS 4 27 Apr 05:55:01 05:58:59 27° 267° (W) 06:02:53
CUBESAT XI-V 27 Apr 05:58:15 06:02:18 32° 69° (ENE) 06:06:25 437.345
M-CUBED/EXP-1 PRIME 27 Apr 06:17:17 06:22:08 87° 74° (ENE) 06:27:00 437.505
CUTE-I 27 Apr 06:32:02 06:35:55 21° 91° (E) 06:39:56 437.470
CUSAT 1 27 Apr 06:38:49 06:43:15 16° 278° (W) 06:47:23 437.405
STRAND 1 27 Apr 06:40:16 06:45:05 44° 69° (ENE) 06:49:56 437.568
Cosmos 2499 27 Apr 06:41:27 06:49:09 63° 267° (W) 06:56:16 435.465 / 435.565
Cubesat XI-IV 27 Apr 06:41:49 06:46:10 25° 93° (E) 06:50:35 437.490
O/OREOS (USA 219) 27 Apr 06:51:17 06:54:00 16° 48° (NE) 06:56:50 437.305
AO-7 27 Apr 06:55:53 07:03:29 41° 301° (WNW) 07:11:01 29.400- 29.500
AUBIESAT-1 27 Apr 06:58:38 07:03:13 43° 257° (WSW) 07:07:46 437.475
JAS-2 27 Apr 07:27:33 07:31:01 15° 308° (NW) 07:34:03 435.910
PRISM 27 Apr 07:27:51 07:31:52 46° 261° (W) 07:35:54 437.425
CUBESAT XI-V 27 Apr 07:35:42 07:39:47 29° 266° (W) 07:43:47 437.345
M-CUBED/EXP-1 PRIME 27 Apr 07:55:30 07:57:38 12° 269° (W) 07:59:32 437.505
